Weather in Irvine

United States     33°40′14″N   117°46′51″W
temp.,
°C
wind,
m/s
gust,
m/s
humid.,
%
clouds,
%
prec.,
mm/h
press.,
hPa
HPBL,
m
16 may, sun
sun1623:00+15ssw336899 0.0 1014916
02:00+14ssw2375100 0.1 1014647
05:00+14ssw337899 0.3 1014613
08:00+14ssw2278100 0.3 1015641
11:00+15sw337199 0.5 1016904
14:00+16sw4369100 0.2 10161009
17:00+16sw336793 0.3 1015949
20:00+15sw337131 0.1 1015471
17 may, mon
mon1723:00+14sw227661 0.1 1016532
02:00+14sw2278100 0.1 1016453
05:00+14sw2281100 0.1 1016410
08:00+15sw117851 0.1 1016529
11:00+18sw325982 0.1 10161089
14:00+20sw535215 0.0 10151054
17:00+20sw43559 0.0 1014939
20:00+16sw32716 0.0 1015382
18 may, tue
tue1823:00+15ssw237974 0.0 1016409
02:00+15sse337877 0.0 1015519
05:00+15sse227688 0.0 1014587
08:00+16sw116834 0.0 1014674
11:00+21wsw32510 0.0 1013825
14:00+23wsw43440 0.0 1012831
17:00+23sw42450 0.0 1010628
20:00+18ssw33630 0.0 1011261
19 may, wed
wed1923:00+16ssw23700 0.0 1012213
02:00+15sse11760 0.0 101191
05:00+14wsw11811 0.0 101178
08:00+17nw11680 0.0 1012334
11:00+22sw32480 0.0 1011794
14:00+23sw43460 0.0 1010825
17:00+22sw43463 0.0 1009728
20:00+17s44680 0.0 1010340
20 may, thu
thu2023:00+15s457815 0.0 1011376
02:00+14se23802 0.0 1011277
05:00+14se337744 0.0 1011265
08:00+15sse336529 0.0 1011554
11:00+20ssw33465 0.0 10111189
14:00+20ssw66460 0.0 1010983
17:00+18sw45531 0.0 1009983
20:00+16s44624 0.0 1010594